Weather reports worldwide

Advertisment
St. Mary's, United Kingdom (3803): temperature & dewpoint: 06.11.2019 15:00:00 - 12.11.2019 15:00:00 (GMT)St. Mary's, United Kingdom (3803): temperature -20cm: 06.11.2019 15:00:00 - 12.11.2019 15:00:00 (GMT)St. Mary's, United Kingdom (3803): wind speed & gusts: 06.11.2019 15:00:00 - 12.11.2019 15:00:00 (GMT)St. Mary's, United Kingdom (3803): wind direction: 06.11.2019 15:00:00 - 12.11.2019 15:00:00 (GMT)St. Mary's, United Kingdom (3803): reduced air pressure: 06.11.2019 15:00:00 - 12.11.2019 15:00:00 (GMT)St. Mary's, United Kingdom (3803): visibility: 06.11.2019 15:00:00 - 12.11.2019 15:00:00 (GMT)St. Mary's, United Kingdom (3803): precipitation: 06.11.2019 15:00:00 - 12.11.2019 15:00:00 (GMT)
Date & Time tt [°C] td [°C] tt -20cm [°C] ff [km/h] ff [kn] fx [km/h] fx [kn] dd ppp [hPa] vv [km] rr [mm]
12.11.2019 15:00:00 9,6 1,0 - 29 16 48 26 NW 1006,9 10 0,0
12.11.2019 14:00:00 9,1 4,0 - 24 13 59 32 NW 1007,3 25 0,0
12.11.2019 13:00:00 10,1 2,9 - 35 19 52 28 NW 1007,6 10 0,0
12.11.2019 12:00:00 9,7 1,6 - 31 17 46 25 NW 1008,2 10 0,0
12.11.2019 11:00:00 9,7 1,9 - 35 19 46 25 WNW 1008,6 10 0,0
12.11.2019 10:00:00 9,4 1,9 - 34 18 48 26 NW 1008,2 10 0,0
12.11.2019 09:00:00 8,9 2,4 9,7 34 18 46 25 NW 1008,2 10 0,0
12.11.2019 08:00:00 8,8 1,7 - 31 17 52 28 NW 1008,0 10 0,0
12.11.2019 07:00:00 8,5 4,4 - 26 14 57 31 NW 1007,8 30 0,0
12.11.2019 06:00:00 9,0 2,6 - 41 22 55 30 WNW 1007,9 35 0,0
12.11.2019 05:00:00 8,1 3,8 - 31 17 59 32 WNW 1008,2 21 0,4
12.11.2019 04:00:00 7,9 4,0 - 35 19 63 34 W 1008,4 27 0,2
12.11.2019 03:00:00 8,7 4,2 - 37 20 68 37 WNW 1008,6 35 0,4
12.11.2019 02:00:00 9,2 2,6 - 42 23 59 32 WNW 1008,9 30 0,0
12.11.2019 01:00:00 9,2 3,9 - 39 21 59 32 WNW 1009,1 30 0,0
12.11.2019 00:00:00 9,5 2,4 - 44 24 59 32 WNW 1009,1 30 0,0
11.11.2019 23:00:00 9,3 4,0 - 41 22 55 30 WNW 1009,1 35 0,0
11.11.2019 22:00:00 9,1 6,0 - 34 18 67 36 WNW 1009,4 6 0,4
11.11.2019 21:00:00 9,6 4,1 - 42 23 59 32 WNW 1009,5 24 0,0
11.11.2019 20:00:00 8,7 5,2 - 39 21 63 34 W 1009,8 40 0,2
11.11.2019 19:00:00 9,3 5,0 - 34 18 65 35 W 1009,8 35 0,0
11.11.2019 18:00:00 10,0 3,9 - 42 23 57 31 WNW 1009,9 30 0,0
11.11.2019 17:00:00 9,2 5,0 - 39 21 63 34 WNW 1010,0 10 0,0
11.11.2019 16:00:00 9,9 4,6 - 41 22 70 38 WNW 1010,3 10 0,2
11.11.2019 15:00:00 10,1 6,6 - 35 19 57 31 W 1010,0 10 0,0
11.11.2019 14:00:00 10,2 4,4 - 46 25 65 35 WNW 1010,7 10 0,0
11.11.2019 13:00:00 10,1 4,8 - 41 22 72 39 WNW 1011,2 10 0,0
11.11.2019 12:00:00 10,6 4,0 - 42 23 59 32 WNW 1011,4 10 0,0
11.11.2019 11:00:00 9,6 4,4 - 42 23 65 35 WNW 1011,5 12 0,0
11.11.2019 10:00:00 8,9 4,2 - 44 24 67 36 WNW 1011,3 22 0,0
11.11.2019 09:00:00 10,0 1,4 10,0 44 24 67 36 NW 1011,3 10 0,0
11.11.2019 08:00:00 10,0 2,5 - 42 23 76 41 WNW 1011,0 10 0,0
11.11.2019 07:00:00 9,7 2,2 - 48 26 70 38 NW 1010,3 17 0,0
11.11.2019 06:00:00 9,9 4,8 - 44 24 76 41 NW 1010,1 12 0,0
11.11.2019 05:00:00 10,0 3,1 - 41 22 76 41 NW 1009,6 14 0,0
11.11.2019 04:00:00 9,3 4,3 - 50 27 78 42 NW 1009,4 13 0,0
11.11.2019 03:00:00 10,5 3,5 - 46 25 76 41 NW 1009,0 18 0,0
11.11.2019 02:00:00 10,7 4,6 - 42 23 70 38 NW 1008,5 12 0,0
11.11.2019 01:00:00 10,3 7,5 - 39 21 67 36 NW 1007,3 11 0,4
11.11.2019 00:00:00 9,8 9,5 - 52 28 72 39 SSW 1007,5 2,8 1,0
10.11.2019 23:00:00 9,3 8,6 - 52 28 61 33 S 1009,1 2,1 0,2
10.11.2019 22:00:00 8,5 7,4 - 42 23 50 27 S 1010,6 6 0,6
10.11.2019 21:00:00 9,7 6,1 - 34 18 - - SSW 1012,2 19 0,0
10.11.2019 20:00:00 9,8 5,9 - 31 17 46 25 SW 1013,0 50 0,0
10.11.2019 19:00:00 9,7 5,4 - 34 18 - - S 1011,5 50 0,0
10.11.2019 18:00:00 9,4 5,4 - 21 11 - - S 1012,8 50 0,0
10.11.2019 17:00:00 8,9 4,8 - 8 4 - - SSE 1013,8 35 0,0
10.11.2019 16:00:00 9,0 4,8 - 2 1 - - NW 1014,9 40 0,0
10.11.2019 15:00:00 9,3 4,6 - 9 5 - - NNW 1015,3 50 0,0
10.11.2019 14:00:00 9,5 4,8 - 11 6 - - N 1015,9 45 0,0
10.11.2019 13:00:00 9,3 4,4 - 18 10 - - N 1016,2 45 0,0
10.11.2019 12:00:00 9,2 4,4 - 21 11 - - N 1015,9 50 0,0
10.11.2019 11:00:00 9,9 4,2 - 28 15 - - N 1016,2 50 0,0
10.11.2019 10:00:00 9,0 4,3 - 28 15 46 25 N 1015,9 50 0,0
10.11.2019 09:00:00 9,0 3,9 10,0 34 18 52 28 N 1015,2 40 0,0
10.11.2019 08:00:00 8,9 3,7 - 34 18 59 32 N 1014,2 50 0,0
10.11.2019 07:00:00 8,2 4,9 - 37 20 57 31 N 1013,0 24 0,0
10.11.2019 06:00:00 8,7 4,1 - 37 20 59 32 N 1012,3 35 0,0
10.11.2019 05:00:00 9,2 3,4 - 46 25 63 34 NNW 1011,8 50 0,0
10.11.2019 04:00:00 9,2 3,9 - 41 22 67 36 NNW 1011,1 45 0,0
10.11.2019 03:00:00 9,5 3,7 - 41 22 65 35 NNW 1010,8 45 0,0
10.11.2019 02:00:00 9,8 3,9 - 42 23 63 34 NW 1010,5 40 0,0
10.11.2019 01:00:00 9,9 4,7 - 41 22 65 35 NW 1010,5 35 0,0
10.11.2019 00:00:00 10,0 4,4 - 42 23 72 39 NW 1010,0 40 0,0
09.11.2019 23:00:00 10,1 4,5 - 46 25 65 35 NW 1009,8 30 0,0
09.11.2019 22:00:00 10,0 4,3 - 41 22 61 33 NW 1009,6 30 0,0
09.11.2019 21:00:00 10,3 3,9 - 35 19 57 31 NW 1009,3 45 0,0
09.11.2019 20:00:00 10,2 4,1 - 37 20 67 36 NW 1009,2 28 0,2
09.11.2019 19:00:00 9,4 5,9 - 39 21 65 35 WNW 1009,5 8 0,0
09.11.2019 18:00:00 10,3 4,4 - 41 22 65 35 NW 1008,8 30 0,0
09.11.2019 17:00:00 10,4 4,4 - 44 24 65 35 NW 1008,0 30 0,0
09.11.2019 16:00:00 10,4 2,9 - 48 26 67 36 NW 1007,4 40 0,0
09.11.2019 15:00:00 10,4 3,0 - 50 27 68 37 NW 1006,8 28 0,2
09.11.2019 14:00:00 10,6 4,3 - 48 26 72 39 NW 1006,5 29 0,0
09.11.2019 13:00:00 10,4 4,2 - 48 26 74 40 NW 1006,1 17 0,0
09.11.2019 12:00:00 10,0 4,7 - 44 24 74 40 NW 1005,7 28 0,0
09.11.2019 11:00:00 9,7 5,3 - 46 25 63 34 WNW 1005,7 30 0,0
09.11.2019 10:00:00 9,9 3,9 - 42 23 63 34 WNW 1005,8 10 0,0
09.11.2019 09:00:00 10,5 5,7 10,2 39 21 67 36 WNW 1005,5 10 0,0
09.11.2019 08:00:00 10,8 7,0 - 39 21 54 29 WNW 1005,3 16 0,2
09.11.2019 07:00:00 8,9 8,1 - 26 14 68 37 W 1005,7 9 1,8
09.11.2019 06:00:00 10,2 9,7 - 44 24 55 30 S 1006,0 3,0 0,8
09.11.2019 05:00:00 9,8 8,8 - 34 18 54 29 SSW 1007,6 8 0,2
09.11.2019 04:00:00 10,5 7,0 - 34 18 50 27 SSW 1009,0 50 0,0
09.11.2019 03:00:00 10,6 7,3 - 35 19 - - S 1010,4 45 0,0
09.11.2019 02:00:00 10,3 6,5 - 26 14 - - S 1011,6 50 0,0
09.11.2019 01:00:00 9,9 5,5 - 21 11 - - SSW 1012,6 50 0,0
09.11.2019 00:00:00 9,5 5,1 - 15 8 - - SW 1013,9 50 0,0
08.11.2019 23:00:00 8,4 4,4 - 13 7 - - SW 1013,8 50 0,0
08.11.2019 22:00:00 8,0 4,1 - 11 6 - - WSW 1014,2 40 0,0
08.11.2019 21:00:00 8,9 4,3 - 8 4 - - W 1014,6 35 0,0
08.11.2019 20:00:00 8,4 4,4 - 9 5 - - W 1014,9 45 0,0
08.11.2019 19:00:00 9,0 4,8 - 9 5 - - NW 1014,4 40 0,0
08.11.2019 18:00:00 9,4 4,9 - 13 7 - - NW 1014,5 40 0,0
08.11.2019 17:00:00 9,8 5,3 - 15 8 - - NW 1014,2 10 0,0
08.11.2019 16:00:00 10,8 5,5 - 21 11 - - NNW 1013,8 30 0,0
08.11.2019 15:00:00 11,3 6,1 - 18 10 - - NNW 1013,2 10 0,0
08.11.2019 14:00:00 11,6 4,0 - 21 11 - - N 1012,7 10 0,0
08.11.2019 13:00:00 11,2 4,2 - 22 12 - - N 1012,4 10 0,0
08.11.2019 12:00:00 11,6 4,6 - 24 13 - - N 1012,3 29 0,0
08.11.2019 11:00:00 11,2 4,5 - 26 14 - - N 1011,8 10 0,0
08.11.2019 10:00:00 11,2 5,1 - 28 15 46 25 N 1010,9 10 0,0
08.11.2019 09:00:00 10,4 4,2 10,5 28 15 55 30 N 1010,3 10 0,0
08.11.2019 08:00:00 10,6 4,3 - 34 18 50 27 N 1008,9 10 0,0
08.11.2019 07:00:00 10,4 5,2 - 35 19 50 27 N 1007,7 45 0,0
08.11.2019 06:00:00 10,2 5,6 - 37 20 55 30 N 1006,5 45 0,0
08.11.2019 05:00:00 9,7 6,2 - 37 20 55 30 N 1005,5 17 0,0
08.11.2019 04:00:00 10,1 6,4 - 31 17 59 32 N 1004,0 45 0,2
08.11.2019 03:00:00 10,0 5,3 - 41 22 65 35 N 1002,7 40 0,0
08.11.2019 02:00:00 9,9 5,2 - 39 21 55 30 N 1001,4 40 0,0
08.11.2019 01:00:00 10,1 7,3 - 31 17 46 25 N 1000,1 26 0,0
08.11.2019 00:00:00 9,8 6,8 - 35 19 52 28 N 999,0 40 0,2
07.11.2019 23:00:00 9,3 7,6 - 41 22 59 32 NNW 998,3 27 1,4
07.11.2019 22:00:00 7,9 5,8 - 39 21 55 30 NNW 997,8 8 2,2
07.11.2019 21:00:00 8,4 6,8 - 35 19 61 33 NNW 997,3 20 0,6
07.11.2019 20:00:00 8,7 6,1 - 44 24 55 30 NNW 996,7 40 0,4
07.11.2019 19:00:00 8,1 6,4 - 39 21 59 32 NNW 996,2 5 0,8
07.11.2019 18:00:00 8,7 6,4 - 31 17 52 28 NNW 995,3 30 0,2
07.11.2019 17:00:00 8,2 6,0 - 31 17 59 32 NNW 994,1 50 0,4
07.11.2019 16:00:00 8,7 6,4 - 26 14 - - N 992,8 10 0,0
07.11.2019 15:00:00 9,6 5,9 - 24 13 - - N 991,2 10 0,0
07.11.2019 14:00:00 9,8 7,8 - 24 13 55 30 W 990,9 10 1,6
07.11.2019 13:00:00 9,2 8,0 - 37 20 55 30 SSW 991,1 10 1,0
07.11.2019 12:00:00 9,4 5,8 - 41 22 52 28 SSW 992,3 10 0,0
07.11.2019 11:00:00 9,4 6,2 - 35 19 61 33 SW 993,3 16 0,6
07.11.2019 10:00:00 8,3 3,8 - 26 14 50 27 WSW 994,1 10 1,0
07.11.2019 09:00:00 8,3 4,3 10,7 24 13 68 37 WSW 994,6 10 0,2
07.11.2019 08:00:00 8,5 4,3 - 29 16 59 32 WSW 995,1 30 0,0
07.11.2019 07:00:00 8,7 3,0 - 34 18 50 27 W 995,3 35 0,0
07.11.2019 06:00:00 8,6 2,1 - 35 19 57 31 W 995,7 40 0,2
07.11.2019 05:00:00 8,7 2,0 - 37 20 57 31 W 996,2 45 0,0
07.11.2019 04:00:00 8,8 3,8 - 39 21 76 41 W 996,7 28 0,6
07.11.2019 03:00:00 9,2 2,9 - 39 21 61 33 W 997,3 29 0,0
07.11.2019 02:00:00 8,9 3,2 - 42 23 63 34 W 997,9 45 0,4
07.11.2019 01:00:00 9,4 1,9 - 46 25 63 34 WNW 998,3 35 0,0
07.11.2019 00:00:00 9,4 3,0 - 42 23 70 38 WNW 998,7 40 0,0
06.11.2019 23:00:00 9,4 4,2 - 46 25 68 37 WNW 998,9 30 0,0
06.11.2019 22:00:00 9,0 4,8 - 46 25 70 38 WNW 999,2 18 0,2
06.11.2019 21:00:00 10,0 4,3 - 48 26 70 38 WNW 999,3 30 0,0
06.11.2019 20:00:00 10,3 5,0 - 44 24 68 37 WNW 999,1 26 0,0
06.11.2019 19:00:00 10,3 5,3 - 48 26 67 36 WNW 999,0 25 0,0
06.11.2019 18:00:00 10,8 5,8 - 44 24 65 35 WNW 998,9 18 0,0
06.11.2019 17:00:00 10,8 7,7 - 42 23 70 38 WNW 998,6 10 0,2
06.11.2019 16:00:00 11,2 10,9 - 41 22 50 27 S 998,4 10 2,0
06.11.2019 15:00:00 10,9 9,9 - 41 22 50 27 S 1000,2 10 0,0

tt = temperature
td = dewpoint
tt -20cm = temperature -20cm
ff = wind speed
fx = gusts
dd = wind direction
ppp = reduced air pressure
vv = visibility
rr = precipitation

Next stations